[[{"header":{"parameterUnit":"m.s-1","parameterCategory":1,"la1":30.2991,"la2":30.254,"lo1":-89.0895,"lo2":-89.0444,"dy":0.0017,"dx":0.0017,"nx":28,"ny":28,"refTime":"2024-02-15T03:00:00:Z","depth":0,"parameterNumber":2,"parameterNumberName":"U-component_of_WINDS"},"data":[0,0,0,0,0,0,0,0,0,0,0,0,0,0,0,0,0,0,0,0,0,0,0,0,0,0,0,0,0,0,0,0,0,0,0,0,0,0,0,0,0,0,0,0,0,0,0,0,0,0,0,0,0,0,0,0,0,0,-0.0255,-0.0254,0,-0.0226,-0.0226,-0.0225,-0.0209,-0.0208,-0.0208,-0.0208,-0.0179,-0.0178,-0.0177,0,0,0,0,0,0,0,0,0,0,0,0,0,-0.0295,-0.0294,-0.0255,-0.0254,-0.0254,-0.0226,-0.0226,-0.0225,-0.0209,-0.0208,-0.0208,-0.0208,-0.0179,-0.0178,-0.0177,0,0,0,0,0,0,0,0,0,0,0,0,0,-0.0273,-0.0294,-0.0255,-0.0242,-0.0241,-0.0226,-0.0225,-0.0225,-0.0209,-0.0208,-0.0208,-0.0208,-0.0179,-0.0178,-0.0177,-0.0172,0,0,-0.0174,-0.0173,0,0,0,0,0,0,0,0,-0.0274,-0.0272,-0.0244,-0.0243,-0.0241,-0.0221,-0.0229,-0.0207,-0.0209,-0.0221,-0.0208,-0.0208,-0.0193,-0.019,-0.0185,-0.0171,-0.017,-0.0174,-0.0173,-0.0172,-0.0172,0,0,0,0,0,0,0,-0.0276,-0.0273,-0.0243,-0.0244,-0.0242,-0.0238,-0.0235,-0.0225,-0.0208,-0.022,-0.0218,-0.0215,-0.0192,-0.0186,-0.0184,-0.0169,-0.0174,-0.0173,-0.0172,-0.0172,-0.015,-0.015,0,0,0,0,0,0,-0.0279,-0.0274,-0.0244,-0.0242,-0.0258,-0.0237,-0.0234,-0.0227,-0.0208,-0.0205,-0.0215,-0.0215,-0.0188,-0.0186,-0.0183,-0.0177,-0.0172,-0.0171,-0.0171,-0.015,-0.015,-0.015,0,0,0,0,0,0,-0.028,-0.0277,-0.0245,-0.0258,-0.0254,-0.0237,-0.023,-0.0227,-0.0221,-0.0204,-0.0201,-0.0213,-0.0188,-0.0185,-0.0175,-0.0175,-0.0171,-0.017,-0.015,-0.015,-0.015,-0.0163,0,0,0,0,0,0,-0.0282,-0.0277,-0.0275,-0.0258,-0.0253,-0.0238,-0.023,-0.0226,-0.022,-0.0218,-0.0201,-0.0198,-0.0188,-0.0177,-0.0174,-0.0174,-0.0169,-0.015,-0.015,-0.015,-0.0163,-0.0164,-0.0165,0,0,0,0,0,-0.0283,-0.028,-0.0275,-0.0272,-0.025,-0.0238,-0.0235,-0.0223,-0.022,-0.0218,-0.0207,-0.0199,-0.0176,-0.0176,-0.0173,-0.0172,-0.0149,-0.015,-0.015,-0.0162,-0.0164,-0.0165,0,0,0,0,0,0,-0.0298,-0.0277,-0.0272,-0.0263,-0.0252,-0.0235,-0.0232,-0.0224,-0.0214,-0.0213,-0.0199,-0.0195,-0.0187,-0.0179,-0.0179,-0.0167,-0.0162,-0.0161,-0.0172,-0.0174,-0.0175,-0.0177,-0.0168,0,0,0,0,0,-0.03,-0.0291,-0.0274,-0.0268,-0.0263,-0.0249,-0.0243,-0.0234,-0.0222,-0.0218,-0.0206,-0.0195,-0.0185,-0.0179,-0.0169,-0.0161,-0.0158,-0.0159,-0.016,-0.0161,-0.0161,-0.0157,-0.0157,-0.015,-0.015,-0.015,0,0,-0.0304,-0.0292,-0.0288,-0.0271,-0.0262,-0.0253,-0.0245,-0.0236,-0.023,-0.0216,-0.0207,-0.0198,-0.0184,-0.0176,-0.0171,-0.0169,-0.0162,-0.0162,-0.0162,-0.0162,-0.0157,-0.0158,-0.0158,-0.0151,-0.0151,-0.0151,0,0,-0.0308,-0.0298,-0.0292,-0.0283,-0.0269,-0.0259,-0.0258,-0.0242,-0.0235,-0.0225,-0.0215,-0.0207,-0.0191,-0.0182,-0.0175,-0.0176,-0.0168,-0.0173,-0.0178,-0.0174,-0.0175,-0.0175,-0.0176,-0.0176,-0.0173,-0.0173,-0.0173,0,-0.0316,-0.0303,-0.029,-0.0282,-0.0275,-0.0263,-0.0257,-0.0248,-0.0232,-0.0227,-0.0224,-0.0203,-0.0193,-0.0183,-0.0183,-0.0178,-0.0176,-0.0175,-0.0176,-0.0176,-0.0176,-0.0176,-0.0177,-0.0174,-0.0173,-0.0173,-0.0173,0,-0.0312,-0.0304,-0.03,-0.0285,-0.0277,-0.0271,-0.0257,-0.0251,-0.0244,-0.0234,-0.0225,-0.0212,-0.02,-0.0197,-0.0189,-0.0185,-0.0184,-0.0179,-0.0173,-0.0178,-0.0178,-0.0178,-0.0174,-0.0174,-0.0174,-0.0174,0,0,-0.0324,-0.0302,-0.0301,-0.0294,-0.0278,-0.0271,-0.0264,-0.0251,-0.0247,-0.0236,-0.0229,-0.0216,-0.0211,-0.0203,-0.0195,-0.0191,-0.0193,-0.0186,-0.0186,-0.0188,-0.0188,-0.0192,-0.0192,-0.0188,-0.0188,-0.0188,-0.0189,0,-0.0326,-0.0312,-0.0301,-0.0291,-0.0283,-0.0271,-0.0265,-0.0254,-0.0246,-0.0238,-0.0228,-0.0219,-0.0213,-0.0208,-0.0204,-0.0194,-0.0193,-0.0194,-0.0182,-0.0182,-0.0186,-0.0192,-0.0196,-0.0198,-0.0189,-0.0189,-0.0189,0,-0.0326,-0.0316,-0.0305,-0.029,-0.0286,-0.0281,-0.0269,-0.0261,-0.0249,-0.0243,-0.0235,-0.0226,-0.0218,-0.0214,-0.0202,-0.0203,-0.0198,-0.0192,-0.0192,-0.019,-0.0186,-0.0191,-0.0198,-0.0198,-0.0189,-0.0189,-0.0189,0,-0.0336,-0.0319,-0.0311,-0.0305,-0.0287,-0.0284,-0.0276,-0.0264,-0.0257,-0.0247,-0.0243,-0.0232,-0.0226,-0.0217,-0.0206,-0.0204,-0.0196,-0.0191,-0.0191,-0.0191,-0.0189,-0.0189,-0.0196,-0.0186,-0.0186,-0.0186,-0.0186,0,-0.0339,-0.0333,-0.0315,-0.031,-0.0303,-0.029,-0.0284,-0.0275,-0.0265,-0.0258,-0.0247,-0.0241,-0.0226,-0.0218,-0.0209,-0.0201,-0.0199,-0.0194,-0.0191,-0.0195,-0.0195,-0.0191,-0.019,-0.0186,-0.0186,-0.0186,-0.0186,0,-0.0349,-0.0337,-0.0327,-0.0311,-0.0306,-0.0302,-0.0288,-0.0283,-0.0274,-0.0265,-0.0263,-0.0248,-0.0238,-0.0226,-0.0212,-0.0206,-0.0199,-0.0196,-0.0203,-0.0202,-0.0203,-0.0203,-0.0206,-0.0206,-0.0197,-0.0197,-0.0197,0,-0.0352,-0.0347,-0.033,-0.0325,-0.0317,-0.0309,-0.0302,-0.0289,-0.0283,-0.0269,-0.0265,-0.0255,-0.0246,-0.023,-0.0219,-0.0208,-0.0204,-0.0206,-0.0203,-0.0206,-0.0204,-0.0205,-0.0204,-0.0207,-0.0207,-0.0208,-0.0208,0,-0.0358,-0.0352,-0.0343,-0.0332,-0.0324,-0.0315,-0.0305,-0.0301,-0.0286,-0.028,-0.0269,-0.0262,-0.0248,-0.0238,-0.0226,-0.0218,-0.0211,-0.0209,-0.0208,-0.0212,-0.0216,-0.0214,-0.0206,-0.0209,-0.0209,-0.0209,-0.0209,-0.0209,-0.0364,-0.0359,-0.0347,-0.0337,-0.0328,-0.0319,-0.0314,-0.0304,-0.0295,-0.0283,-0.0276,-0.0266,-0.0254,-0.0237,-0.023,-0.0222,-0.0219,-0.0218,-0.0218,-0.0218,-0.0219,-0.0218,-0.022,-0.022,-0.022,-0.022,-0.022,0,-0.037,-0.0361,-0.0352,-0.0339,-0.0331,-0.0325,-0.0313,-0.0307,-0.0299,-0.0288,-0.028,-0.0268,-0.0258,-0.0246,-0.0235,-0.0231,-0.0227,-0.0229,-0.0229,-0.0227,-0.0222,-0.0224,-0.0232,-0.0232,-0.0232,-0.0232,-0.0232,-0.0232,-0.0372,-0.0363,-0.0356,-0.0344,-0.0335,-0.0325,-0.0319,-0.0311,-0.0303,-0.029,-0.0282,-0.0274,-0.0263,-0.0251,-0.0242,-0.0239,-0.0235,-0.0238,-0.0233,-0.0229,-0.0228,-0.0227,-0.0228,-0.0237,-0.0237,-0.0239,-0.0239,-0.0239]},{"header":{"parameterUnit":"m.s-1","parameterCategory":1,"la1":30.2991,"la2":30.254,"lo1":-89.0895,"lo2":-89.0444,"dy":0.0017,"dx":0.0017,"nx":28,"ny":28,"refTime":"2024-02-15T03:00:00:Z","depth":0,"parameterNumber":3,"parameterNumberName":"V-component_of_WINDS"},"data":[0,0,0,0,0,0,0,0,0,0,0,0,0,0,0,0,0,0,0,0,0,0,0,0,0,0,0,0,0,0,0,0,0,0,0,0,0,0,0,0,0,0,0,0,0,0,0,0,0,0,0,0,0,0,0,0,0,0,1.6338,1.6338,0,1.6319,1.6319,1.6318,1.634,1.6341,1.6342,1.6342,1.6318,1.6317,1.6316,0,0,0,0,0,0,0,0,0,0,0,0,0,1.639,1.6389,1.6338,1.6338,1.6338,1.6319,1.6319,1.6318,1.634,1.6341,1.6342,1.6343,1.6319,1.6317,1.6316,0,0,0,0,0,0,0,0,0,0,0,0,0,1.6369,1.6389,1.6338,1.6346,1.6347,1.6319,1.6319,1.6318,1.634,1.6341,1.6342,1.6343,1.6319,1.6317,1.6315,1.6277,0,0,1.6309,1.6308,0,0,0,0,0,0,0,0,1.637,1.6367,1.6345,1.6346,1.6346,1.6333,1.6328,1.6304,1.6339,1.6342,1.6342,1.6344,1.6322,1.632,1.6313,1.6276,1.6275,1.6309,1.6307,1.6307,1.6306,0,0,0,0,0,0,0,1.6372,1.6368,1.6331,1.6345,1.6346,1.635,1.6348,1.6324,1.6325,1.6342,1.6344,1.6341,1.6323,1.6315,1.6313,1.6275,1.6309,1.6307,1.6306,1.6305,1.6206,1.6205,0,0,0,0,0,0,1.6373,1.6369,1.6331,1.633,1.6362,1.6348,1.6346,1.6336,1.6326,1.6325,1.634,1.6342,1.6318,1.6315,1.6312,1.6267,1.6307,1.6305,1.6303,1.6208,1.6206,1.6205,0,0,0,0,0,0,1.6374,1.6369,1.6332,1.635,1.6346,1.6346,1.6334,1.6335,1.6328,1.6324,1.6324,1.6333,1.6319,1.6315,1.6286,1.6267,1.6304,1.6302,1.6209,1.6207,1.6205,1.6177,0,0,0,0,0,0,1.6375,1.6369,1.6356,1.635,1.6345,1.6307,1.6333,1.6334,1.6325,1.6327,1.6317,1.6317,1.632,1.6289,1.6284,1.6265,1.63,1.6211,1.6208,1.6206,1.618,1.6175,1.617,0,0,0,0,0,1.6377,1.6348,1.6355,1.635,1.6328,1.6306,1.6303,1.6308,1.6323,1.6309,1.6307,1.6317,1.627,1.6286,1.6281,1.626,1.6212,1.6209,1.6206,1.6182,1.6176,1.617,0,0,0,0,0,0,1.635,1.6347,1.6355,1.6323,1.6315,1.631,1.6292,1.6301,1.6288,1.629,1.6296,1.6294,1.6263,1.6259,1.6277,1.6223,1.6243,1.6239,1.6227,1.6221,1.6216,1.6217,1.6298,0,0,0,0,0,1.634,1.6324,1.6322,1.6294,1.629,1.6292,1.6282,1.6287,1.6278,1.6275,1.627,1.626,1.6244,1.6232,1.6216,1.618,1.6178,1.6163,1.6158,1.6154,1.615,1.613,1.6124,1.6195,1.6195,1.6195,0,0,1.632,1.6316,1.6306,1.6288,1.6283,1.6265,1.6288,1.6268,1.6255,1.6271,1.6244,1.6241,1.623,1.6197,1.6183,1.6193,1.613,1.615,1.6147,1.6145,1.6126,1.612,1.6114,1.6193,1.6193,1.6193,0,0,1.6274,1.627,1.6246,1.624,1.6232,1.6234,1.6228,1.6222,1.6221,1.6194,1.6206,1.619,1.616,1.6153,1.6145,1.6097,1.6106,1.6091,1.6065,1.6046,1.604,1.6035,1.6018,1.6012,1.6088,1.6088,1.6087,0,1.6249,1.6224,1.6232,1.6212,1.6204,1.622,1.6195,1.6189,1.6175,1.6169,1.6181,1.6145,1.6139,1.6105,1.6093,1.6086,1.6079,1.6092,1.6041,1.6036,1.6031,1.6015,1.6008,1.6086,1.6086,1.6086,1.6086,0,1.6194,1.6176,1.6158,1.6146,1.6136,1.6114,1.6118,1.6107,1.6113,1.6113,1.6086,1.6079,1.6062,1.6055,1.606,1.6021,1.6028,1.604,1.606,1.6023,1.6007,1.6001,1.6083,1.6084,1.6084,1.6085,0,0,1.6129,1.6123,1.6116,1.6111,1.6104,1.609,1.6068,1.6054,1.6043,1.6034,1.6015,1.5991,1.6002,1.5993,1.5998,1.5981,1.5944,1.5996,1.5995,1.5986,1.5901,1.5891,1.5884,1.595,1.5949,1.5948,1.5901,0,1.6082,1.6046,1.6054,1.6018,1.6001,1.6017,1.5998,1.5991,1.599,1.5976,1.5975,1.5958,1.5975,1.5969,1.5954,1.5952,1.5927,1.5955,1.5932,1.5931,1.5933,1.5876,1.5865,1.5821,1.5895,1.5894,1.5894,0,1.6023,1.6013,1.5976,1.5972,1.5965,1.5948,1.5936,1.5922,1.5914,1.5915,1.5906,1.5914,1.5891,1.5913,1.5882,1.5901,1.5892,1.589,1.5888,1.5885,1.5909,1.587,1.5807,1.58,1.5884,1.5885,1.5886,0,1.5979,1.5956,1.5931,1.5926,1.5921,1.5908,1.5905,1.5899,1.589,1.5879,1.5873,1.5858,1.585,1.5839,1.5842,1.5858,1.581,1.5832,1.5809,1.5809,1.5798,1.5798,1.5731,1.5793,1.5793,1.5793,1.5794,0,1.5926,1.5902,1.5911,1.5895,1.5869,1.5878,1.5852,1.585,1.5845,1.5829,1.5841,1.5825,1.5831,1.5816,1.5818,1.5792,1.5788,1.5788,1.5789,1.5786,1.5786,1.578,1.5782,1.5792,1.5792,1.5792,1.5793,0,1.5871,1.5876,1.585,1.5848,1.5847,1.5828,1.5825,1.581,1.5812,1.5791,1.5787,1.5789,1.5771,1.5774,1.5754,1.5756,1.5723,1.5728,1.5726,1.5727,1.5704,1.5706,1.563,1.562,1.5689,1.5688,1.5687,0,1.5836,1.5819,1.5816,1.5807,1.5803,1.5788,1.5779,1.5787,1.5777,1.5768,1.5754,1.5738,1.5725,1.5697,1.5695,1.568,1.5684,1.5659,1.5682,1.568,1.5683,1.5684,1.5682,1.5654,1.5653,1.5652,1.5652,0,1.5774,1.5778,1.5766,1.5755,1.5744,1.5735,1.5727,1.5719,1.5726,1.5714,1.5698,1.5688,1.5669,1.5652,1.5639,1.5634,1.5644,1.5645,1.5639,1.5636,1.5635,1.5635,1.5713,1.5646,1.5647,1.5647,1.5648,1.5648,1.5728,1.5714,1.571,1.5695,1.5691,1.5684,1.567,1.567,1.5657,1.5643,1.5648,1.5628,1.5621,1.5604,1.5599,1.5583,1.5592,1.5583,1.5581,1.5578,1.5576,1.5639,1.558,1.5581,1.5581,1.5581,1.5581,0,1.5666,1.5665,1.5652,1.5642,1.563,1.5643,1.5635,1.5624,1.5607,1.5601,1.5589,1.557,1.5554,1.5552,1.5537,1.5525,1.5529,1.5521,1.5521,1.552,1.5568,1.5575,1.5518,1.5518,1.5518,1.5518,1.5518,1.5518,1.5633,1.5609,1.5612,1.5586,1.5584,1.5567,1.5561,1.5554,1.5549,1.5527,1.5515,1.5515,1.551,1.5495,1.5481,1.5481,1.5475,1.5465,1.5466,1.5511,1.5517,1.5523,1.5529,1.5463,1.5463,1.5419,1.5419,1.5418]}]]